Tracking 20753 objects as of 7-Jun-2020
HD Live streaming from Space Station
objects crossing your sky now
Track the most recent launched group of Starlink satellites

COSMOS 2539

Track COSMOS 2539 now!


NORAD ID: 44457
Int'l Code: 2019-048A
Perigee: 35,791.2 km
Apogee: 35,796.2 km
Inclination: 0.0 °
Period: 1,436.1 minutes
Semi major axis: 42164 km
RCS: Unknown
Launch date: August 5, 2019
Source: Commonwealth of Independent States (former USSR) (CIS)
Launch site: TYURATAM MISSILE AND SPACE COMPLEX (TTMTR)
aabbcc
Your satellite tracking list
Your tracking list is empty




NASA's NSSDC Master Catalog

Two Line Element Set (TLE):
1 44457U 19048A   20157.78500773 +.00000075 +00000-0 +00000-0 0  9990
2 44457 000.0432 107.1491 0000594 053.1688 028.9376 01.00271819003127
Source of the keplerian elements: AFSPC